This is the latest recevied weather packets stored in our database for station/object W9WRP. If no packets are shown the sender has not sent any weather packets the latest 10 day(s).
| Time | Temp. | Humidity | Pressure | Rain* | Wind** | Luminosity | Snow |
|---|---|---|---|---|---|---|---|
| 1788026684 | 40° C | 27% | 1015.3 hPa | 0 mm | - | 227 W/m² | - |
| 1788026076 | 40° C | 27% | 1015.1 hPa | 0 mm | - | 663 W/m² | - |
| 1788025773 | 40° C | 27% | 1015.3 hPa | 0 mm | - | 644 W/m² | - |
| 1788025468 | 39.44° C | 27% | 1015 hPa | 0 mm | - | 637 W/m² | - |
| 1788025164 | 40° C | 28% | 1015.3 hPa | 0 mm | - | 626 W/m² | - |
| 1788024863 | 40° C | 27% | 1015.1 hPa | 0 mm | - | 610 W/m² | - |
| 1788024559 | 39.44° C | 27% | 1015.3 hPa | 0 mm | - | 600 W/m² | - |
| 1788024258 | 38.89° C | 28% | 1015.4 hPa | 0 mm | - | 588 W/m² | - |
| 1788023954 | 37.78° C | 30% | 1015.4 hPa | 0 mm | - | 383 W/m² | - |
| 1788023649 | 37.78° C | 30% | 1015.8 hPa | 0 mm | - | 226 W/m² | - |
| 1788023345 | 37.78° C | 30% | 1015.7 hPa | 0 mm | - | 250 W/m² | - |
| 1788023040 | 37.78° C | 31% | 1015.8 hPa | 0 mm | - | 239 W/m² | - |
| 1788022737 | 38.33° C | 30% | 1015.8 hPa | 0 mm | - | 183 W/m² | - |
| 1788022435 | 38.33° C | 28% | 1015.6 hPa | 0 mm | - | 300 W/m² | - |
| 1788022131 | 37.78° C | 29% | 1015.6 hPa | 0 mm | - | 148 W/m² | - |
| 1788021824 | 37.22° C | 30% | 1015.5 hPa | 0 mm | - | 183 W/m² | - |
| 1788021517 | 37.78° C | 30% | 1015.6 hPa | 0 mm | - | 151 W/m² | - |
| 1788021211 | 37.78° C | 30% | 1015.8 hPa | 0 mm | - | 213 W/m² | - |
| 1788020907 | 37.22° C | 30% | 1015.6 hPa | 0 mm | - | 225 W/m² | - |
| 1788020601 | 37.78° C | 31% | 1015.6 hPa | 0 mm | - | 207 W/m² | - |
| 1788020298 | 38.33° C | 30% | 1015.6 hPa | 0 mm | - | 230 W/m² | - |
| 1788019994 | 38.33° C | 30% | 1015.6 hPa | 0 mm | - | 175 W/m² | - |
| 1788019693 | 37.78° C | 31% | 1015.3 hPa | 0 mm | - | 257 W/m² | - |
| 1788019392 | 37.22° C | 34% | 1015.4 hPa | 0 mm | - | 165 W/m² | - |
| 1788019091 | 37.22° C | 34% | 1015.4 hPa | 0 mm | - | 163 W/m² | - |
* Rain latest hour (hover to see other rain measurements)
** Current wind speed in m/s (hover to see current wind gust speed)